www.pogodaiklimat.ru

Погода и климат >> Архив погоды >> Таиланд >> Suphan Buri


ПОГОДА в Suphan Buri

  • Прогноз погоды в Suphan Buri
  • Монитор погоды в Suphan Buri
  • Климат города

АРХИВ ПОГОДЫ в Suphan Buri

Время (UTC), дата Ветер
(напр.,м/с)
 
Видим.   Явления Облачность Т
(С)
Тd
(С)
f
(%)
Тe
(С)
Тes
(С)
Комфортность P
(гПа)
Po
(гПа)
Тmin
(С)
Tmax
(С)
R
(мм)
S
(см)
00 14.02 СВ 2 2000 м дымка 3/0
[Cs]
+19.0 +15.6 81 +21 +21 комфорт 1019.7 1018.7 +18.0
03 14.02 СВ 3 4000 м мгла 3/0
[Cs]
+25.0 +16.9 61 +29 +38 душно 1021.4 1020.4
06 14.02 СВ 5 7000 м мгла 3/0
[Cs]
+29.4 +17.8 50 +34 +42 очень
душно
1019.2 1018.2
09 14.02 В 2 8000 м мгла 3/0
[Cs]
+30.6 +17.6 46 +35 +40 очень
душно
1016.5 1015.5
12 14.02 штиль 0 7000 м мгла 3/0
[Cs]
+27.4 +18.3 58 +32 +32 очень
душно
1017.0 1016.0 +31.7
15 14.02 штиль 0 6000 м дымка 3/0
[Cs]
+24.4 +19.1 72 +29 +29 душно 1019.1 1018.1
18 14.02 штиль 0 4000 м дымка 3/0
[Cs]
+22.4 +18.6 79 +28 +28 душно 1018.5 1017.4
21 14.02 С 1 2000 м дымка 3/0
[Cs]
+20.8 +17.5 81 +26 +26 душно 1017.2 1016.2
00 15.02 штиль 0 3000 м дымка 3/0
[Cs]
+19.6 +16.1 80 +22 +22 комфорт 1018.7 1017.6 +19.2
03 15.02 СВ 1 5000 м мгла 3/0
[Cs]
+26.1 +17.5 59 +30 +43 душно 1020.2 1019.2
06 15.02 СВ 2 7000 м мгла 3/0
[Cs]
+30.0 +18.4 50 +35 +51 опасность
солнечного
удара
1018.2 1017.2
09 15.02 СВ 2 8000 м мгла 3/0
[Cs]
+31.1 +16.1 40 +34 +39 душно 1015.0 1014.0
12 15.02 штиль 0 6000 м мгла 3/0
[Cs]
+28.1 +20.4 63 +35 +35 очень
душно
1015.7 1014.7 +32.7
15 15.02 штиль 0 5000 м дымка 3/0
[Cs]
+24.8 +20.7 78 +31 +31 очень
душно
1017.5 1016.5
18 15.02 штиль 0 3000 м дымка 3/0
[Cs]
+23.0 +18.2 74 +29 +29 очень
душно
1017.2 1016.2
21 15.02 штиль 0 2000 м дымка 3/0
[Cs]
+20.8 +17.0 79 +24 +24 комфорт 1015.8 1014.7
00 16.02 штиль 0 2000 м дымка 3/0
[Cs]
+19.7 +16.7 83 +22 +22 комфорт 1016.8 1015.7 +19.2
03 16.02 СВ 1 5000 м мгла 3/0
[Cs]
+26.5 +18.9 63 +32 +45 очень
душно
1018.4 1017.4
06 16.02 СВ 2 7000 м мгла 3/0
[Cs]
+31.3 +19.2 49 +37 +53 опасность
солнечного
удара
1015.5 1014.5
09 16.02 СВ 1 8000 м мгла 3/0
[Cs]
+32.1 +18.0 43 +36 +42 очень
душно
1012.2 1011.2
12 16.02 штиль 0 4000 м мгла 3/0
[Cs]
+28.3 +19.9 60 +34 +34 очень
душно
1012.5 1011.5 +33.2
15 16.02 штиль 0 3000 м дымка 3/0
[Cs]
+25.9 +19.7 69 +32 +32 очень
душно
1014.5 1013.5
18 16.02 штиль 0 3000 м дымка 3/0
[Cs]
+23.0 +20.2 84 +30 +30 очень
душно
1014.5 1013.5
21 16.02 штиль 0 2000 м дымка 3/0
[Cs]
+21.4 +18.4 83 +26 +26 душно 1013.9 1012.8
00 17.02 штиль 0 2000 м дымка 3/0
[Cs]
+20.4 +17.5 83 +23 +24 комфорт 1015.9 1014.9 +19.2
03 17.02 СВ 1 6000 м мгла 3/0
[Cs]
+28.1 +18.8 57 +33 +46 очень
душно
1016.9 1015.9
06 17.02 В 1 7000 м мгла 3/0
[Cs]
+32.7 +17.6 41 +37 +56 опасность
солнечного
удара
1014.4 1013.4
09 17.02 З 3 8000 м мгла 3/0
[Cs]
+33.5 +18.3 41 +38 +42 очень
душно
1011.5 1010.5
12 17.02 штиль 0 7000 м мгла 3/0
[Cs]
+29.4 +19.6 56 +35 +35 очень
душно
1012.4 1011.4 +35.0
15 17.02 штиль 0 6000 м дымка 3/0
[Cs]
+25.5 +21.4 78 +32 +32 очень
душно
1014.5 1013.5
18 17.02 штиль 0 4000 м дымка 3/0
[Cs]
+23.6 +20.5 83 +29 +29 душно 1014.6 1013.5
21 17.02 штиль 0 2000 м дымка 3/0
[Cs]
+22.0 +19.8 87 +28 +28 душно 1013.8 1012.7
00 18.02 штиль 0 2000 м дымка 3/0
[Cs]
+20.8 +19.5 92 +25 +25 комфорт 1015.3 1014.2 +20.4
03 18.02 С 2 5000 м мгла 3/0
[Cs]
+27.7 +18.8 58 +33 +44 очень
душно
1017.2 1016.2
06 18.02 В 1 7000 м мгла 3/0
[Cs]
+33.1 +18.9 43 +38 +57 опасность
солнечного
удара
1015.1 1014.1
09 18.02 СВ 2 8000 м мгла 3/0
[Cs]
+34.3 +17.8 38 +38 +43 очень
душно
1012.4 1011.5
12 18.02 штиль 0 5000 м мгла 3/0
[Cs]
+30.5 +20.8 56 +38 +38 очень
душно
1013.2 1012.2 +34.8
15 18.02 штиль 0 4000 м дымка 3/0
[Cs]
+26.5 +21.7 75 +34 +34 очень
душно
1014.4 1013.3
18 18.02 штиль 0 3000 м дымка 4/0
[Ac trans Cs]
+24.2 +21.2 83 +31 +31 очень
душно
1014.0 1013.0
21 18.02 штиль 0 2000 м дымка 3/0
[Cs]
+22.7 +20.1 85 +29 +29 очень
душно
1012.8 1011.8
00 19.02 штиль 0 2000 м дымка 3/0
[Cs]
+21.0 +18.3 85 +25 +25 комфорт 1013.6 1012.6 +20.5
03 19.02 штиль 0 5000 м мгла 3/0
[Cs]
+28.1 +19.5 60 +34 +49 очень
душно
1015.6 1014.5
06 19.02 штиль 0 7000 м мгла 3/0
[Cs]
+33.0 +20.6 48 +40 +62 опасность
солнечного
удара
1012.6 1011.6
09 19.02 штиль 0 8000 м мгла 3/0
[Cs]
+33.7 +21.7 50 +42 +49 опасность
перегрева
1009.6 1008.7
12 19.02 штиль 0 6000 м мгла 3/0
[Cs]
+29.5 +20.4 58 +36 +36 очень
душно
1009.4 1008.4 +34.4
15 19.02 штиль 0 5000 м дымка 3/0
[Cs]
+25.9 +21.5 77 +33 +33 очень
душно
1010.6 1009.5
18 19.02 штиль 0 3000 м дымка 3/0
[Cs]
+25.3 +21.1 78 +32 +32 очень
душно
1010.2 1009.2
21 19.02 штиль 0 2000 м дымка 3/0
[Cs]
+23.4 +21.3 88 +31 +31 очень
душно
1009.5 1008.5
00 20.02 штиль 0 2000 м дымка 3/0
[Cs]
+22.5 +21.1 92 +30 +30 очень
душно
1011.0 1010.0 +21.4
03 20.02 штиль 0 5000 м мгла 3/0
[Cs]
+28.5 +20.5 62 +35 +51 опасность
солнечного
удара
1012.1 1011.1
06 20.02 Ю 2 8000 м мгла 3/0
[Cs]
+33.5 +20.2 46 +40 +57 опасность
солнечного
удара
1009.5 1008.5
09 20.02 ЮВ 1 8000 м мгла 3/0
[Cs]
+34.6 +18.8 39 +39 +45 очень
душно
1006.6 1005.7
12 20.02 штиль 0 6000 м дымка 3/0
[Cs]
+29.0 +23.2 71 +39 +39 очень
душно
1007.7 1006.7 +35.5
15 20.02 штиль 0 5000 м дымка 3/0
[Cs]
+26.4 +22.1 77 +34 +34 очень
душно
1009.7 1008.7
18 20.02 ЮЗ 2 4000 м дымка 3/0
[Cs]
+25.6 +21.7 79 +33 +33 очень
душно
1009.8 1008.7
21 20.02 штиль 0 2000 м дымка 3/0
[Cs]
+24.1 +22.1 89 +31 +31 очень
душно
1009.7 1008.7

 

Местоположение метеостанции Suphan Buri (Таиланд): широта 14.47 долгота 100.13 высота над уровнем моря 8 м.

В архиве по умолчанию представлена погода в Suphan Buri за последнюю неделю. Архивные данные за месяц целиком и за предыдущие месяцы, начиная с января 2011 года, Вы можете получить, выбрав интересующий диапазон дат из раскрывающегося списка и нажав кнопку "Ввод!".

Внимание! Время в таблицах - всемирное. Для получения местного времени необходимо прибавить поправку, которая в Suphan Buri равна 7 ч.

Смотрите также архив погоды в соседних городах и на ближайших метеорологических станциях:

Погода в U Thong Agromet (Таиланд) (34 км)
Погода в Nakhonpathom (Таиланд) (53 км)
Погода в Lop Buri (Таиланд) (63 км)
Погода в Ayutthaya (Таиланд) (64 км)
Погода в Pathumthani (Таиланд) (67 км)
Погода в Chainat Agromet (Таиланд) (76 км)
Погода в Don Muang (Таиланд) (79 км)
Погода в Kanchanaburi (Таиланд) (82 км)
Погода в Saraburi (Таиланд) (85 км)
Погода в Bangkok (Таиланд) (94 км)

Пояснения к столбцам:

Ветер - указаны скорость ветра в м/с - средняя за 10 мин, порывы в срок и между сроками (в фигурных скобках) и направление, откуда дует ветер: С - северный, СВ - северо-восточный, В - восточный, ЮВ - юго-восточный, Ю - южный, ЮЗ - юго-западный, З - западный, СЗ - северо-западный.
Видимость - горизонтальная дальность видимости в метрах или километрах. При видимости от 1 до 10 км при отсутствии осадков обычно наблюдается дымка, при ухудшении видимости до 1 км и менее - туман. В сухую погоду видимость может ухудшаться дымом, пылью или мглою.
Явления - указаны атмосферные явления, наблюдавшиеся в срок или в последний час перед сроком; фигурными скобками обозначены явления, наблюдавшиеся между сроками (за 1-3 часа до срока); квадратными скобками обозначены град или гололедные отложения с указанием их диаметра в мм.
Облачность - указаны через наклонную черту общая и нижняя облачность в баллах и высота нижней границы облаков в метрах; квадратными скобками обозначены формы облаков: Ci - перистые, Cs - перисто-слоистые, Cc - перисто-кучевые, Ac - высококучевые, As - высокослоистые, Sc - слоисто-кучевые, Ns - слоисто-дождевые, Cu - кучевые, Cb - кучево-дождевые. Подробнее классификацию облаков см. в Атласе облаков (PDF).
T - Температура воздуха - температура, измеренная на высоте 2 м над землей.
Td - Температура точки росы - температура, при понижении до которой содержащийся в воздухе водяной пар достигнет насыщения.
f - Относительная влажность воздуха - влажноcть воздуха, измеренная на высоте 2 м над землей.
Te - Эффективная температура - температура, которую ощущает одетый по сезону человек в тени. Характеристика душности погоды. При расчете учитывается влияние влажности воздуха и скорости ветра на теплоощущения человека.
Tes - Эффективная температура на солнце - температура, которую ощущает человек, с поправкой на солнечный нагрев. Характеристика знойности погоды. Зависит от высоты солнца над горизонтом, облачности и скорости ветра. Ночью, в пасмурную погоду, а также при ветре 12 м/с и более поправка равна нулю.
P - Атмосферное давление - приведенное к уровню моря атмосферное давление.
Po - Атмосферное давление - измеренное на уровне метеостанции атмосферное давление.
Tmin - Минимальная температура - минимум температуры воздуха на высоте 2 м над землей.
Tmax - Максимальная температура - максимум температуры воздуха на высоте 2 м над землей.
R - Количество осадков - Количество выпавших осадков, мм. При наведении курсора мыши на число - период времени, за который выпало указанное количество осадков.
S - Снежный покров - Высота снежного покрова, см. При наведении курсора мыши на число - состояние снежного покрова и степень покрытия местности в баллах.